This demonstration page uses our WeatherBlox Daily Observations layout. Learn more.

Left ArrowRight Arrow

Hourly Observations for July 3, 2016

Temp ( °F °C ) Dew Point ( °F °C ) Humidity (%) Winds ( mph kmh ) Pressure ( in mb ) Visibility ( mi km ) Precip ( " mm )
12:58 am 00:58 Cloudy 63 17.1 60 15.6 91 91 E 8 13 30.01 1016 10 16 0.00 0.00
1:58 am 01:58 Cloudy 62 16.7 60 15.3 92 92 E 9 15 30.00 1016 10 16 0.00 0.00
2:58 am 02:58 Cloudy 62 16.5 59 15 91 91 E 8 13 29.97 1015 10 16 0.00 0.00
3:58 am 03:58 Cloudy 61 16.2 59 15 93 93 E 9 15 29.97 1015 10 16 0.00 0.00
4:58 am 04:58 Cloudy 61 16.3 59 15.1 93 93 E 8 13 29.97 1015 10 16 0.00 0.00
5:58 am 05:58 Cloudy 61 16.3 59 15.2 93 93 ENE 7 11 29.97 1015 10 16 0.00 0.00
6:46 am 06:46 Cloudy 61 16 59 15 94 94 ENE 10 17 29.94 1014 10 16 0.00 0.00
6:56 am 06:56 Cloudy 61 16 61 16 100 100 ENE 9 15 29.94 1014 10 16 0.00 0.00
6:58 am 06:58 Cloudy 61 16 61 16 100 100 ENE 9 15 29.97 1015 10 16 0.00 0.00
7:22 am 07:22 Cloudy 63 17 59 15 88 88 NE 10 17 29.94 1014 10 16 0.00 0.00
7:58 am 07:58 Cloudy 62 16.5 60 15.4 93 93 ENE 10 17 29.97 1015 10 16 0.00 0.00
8:31 am 08:31 Cloudy 63 17 59 15 88 88 ENE 13 20 29.94 1014 10 16 0.00 0.00
8:58 am 08:58 Cloudy 63 17.1 59 15.1 88 88 ENE 9 15 29.97 1015 10 16 0.00 0.00
9:58 am 09:58 Cloudy 64 17.6 60 15.6 88 88 ENE 9 15 29.97 1015 10 16 0.00 0.00
10:58 am 10:58 Cloudy 64 17.8 61 15.9 89 89 ENE 8 13 29.98 1015 10 16 0.00 0.00
11:58 am 11:58 Cloudy 65 18.6 61 16.3 87 87 ENE 8 13 29.98 1015 10 16 0.00 0.00
12:58 pm 12:58 Cloudy 66 19.1 62 16.5 85 85 ENE 7 11 29.98 1015 10 16 0.00 0.00
1:34 pm 13:34 Cloudy 68 20 63 17 83 83 ENE 7 11 29.94 1014 10 16 0.00 0.00
1:46 pm 13:46 Cloudy 68 20 63 17 83 83 NE 7 11 29.94 1014 10 16 0.00 0.00
1:58 pm 13:58 Cloudy 68 20.2 62 16.7 80 80 NE 9 15 29.97 1015 10 16 0.00 0.00
2:16 pm 14:16 Cloudy 68 20 63 17 83 83 ENE 7 11 29.94 1014 10 16 0.00 0.00
2:58 pm 14:58 Cloudy 69 20.3 62 16.5 79 79 ENE 8 13 29.96 1015 10 16 0.00 0.00
3:58 pm 15:58 Cloudy 69 20.5 63 17 80 80 E 6 9 29.96 1015 10 16 0.00 0.00
4:58 pm 16:58 Cloudy 69 20.4 63 17 81 81 E 8 13 29.95 1014 10 16 0.00 0.00
5:58 pm 17:58 Cloudy 68 20.2 63 17.2 83 83 E 6 9 29.94 1014 10 16 0.00 0.00
6:58 pm 18:58 Cloudy 68 20.2 63 17.2 83 83 E 6 9 29.93 1014 10 16 0.00 0.00
7:58 pm 19:58 Cloudy 68 20.1 63 17.4 85 85 E 5 7 29.93 1014 10 16 0.00 0.00
8:58 pm 20:58 Mostly Cloudy 67 19.6 64 17.7 89 89 ESE 6 9 29.92 1013 10 16 0.00 0.00
9:49 pm 21:49 Cloudy 66 19 63 17 88 88 SE 9 15 29.88 1012 10 16 0.00 0.00
9:58 pm 21:58 Cloudy 67 19.3 64 17.5 89 89 ESE 8 13 29.92 1013 10 16 0.00 0.00
10:04 pm 22:04 Cloudy 66 19 64 18 94 94 ESE 7 11 29.88 1012 10 16 0.00 0.00
10:34 pm 22:34 Cloudy 66 19 64 18 94 94 ESE 6 9 29.91 1013 10 16 0.00 0.00
10:37 pm 22:37 Cloudy 66 19 64 18 94 94 ESE 6 9 29.91 1013 10 16 0.00 0.00
10:43 pm 22:43 Cloudy 66 19 64 18 94 94 ESE 6 9 29.91 1013 10 16 0.00 0.00
10:58 pm 22:58 Cloudy 66 19 64 17.6 92 92 SE 6 9 29.94 1014 10 16 0.00 0.00
11:58 pm 23:58 Cloudy 66 18.7 63 17.2 91 91 E 6 9 29.93 1014 10 16 0.00 0.00

Powered by AerisWeather